Погода в Новодмитриевке

Россия / Республика Дагестан     44°05′10″N   46°29′10″E
темп.,
°C
ветер,
м/с
пор.,
м/с
влажн.,
%
обл.,
%
осадки,
мм/ч
давл.,
гПа
погр.,
м
11 мая, вт
вт1100:00+9зюз22595 0.0 102013
03:00+8всв11655 0.0 101910
06:00+9всв24630 0.0 1019127
09:00+16вюв7104224 0.0 10181991
12:00+18вюв10123816 0.0 10162098
15:00+17вюв1012360 0.0 10161667
18:00+15вюв710510 0.0 1016956
21:00+10в39730 0.0 1017173
12 мая, ср
ср1200:00+10в23780 0.0 101631
03:00+9ююв11790 0.0 101510
06:00+11ююз22700 0.0 101686
09:00+16ююв12480 0.0 1016701
12:00+20вюв23410 0.0 10151314
15:00+23в23370 0.0 10151616
18:00+19в57550 0.0 1015328
21:00+13вюв35830 0.0 101591
13 мая, чт
чт1300:00+11вюв34922 0.0 101569
03:00+11вюв23920 0.0 101438
06:00+13вюв24830 0.0 1014130
09:00+20в33580 0.0 1015636
12:00+25в44430 0.0 10141056
15:00+26вюв66420 0.0 10131109
18:00+22в575750 0.0 1014346
21:00+14вюв35795 0.0 1015101
14 мая, пт
пт1400:00+13в35855 0.0 1014111
03:00+13вюв37915 0.0 1013138
06:00+15юв39815 0.0 1013238
09:00+24юв6115128 0.0 1013683
12:00+29юв91535100 0.0 1012964
15:00+27вюв10173987 0.0 1012794
18:00+22вюв920473 0.0 1012490
21:00+21вюв922280 0.0 1012495
15 мая, сб
сб1500:00+20вюв820320 0.0 1012425
03:00+19вюв718340 0.0 1012367
06:00+18вюв618490 0.0 1012435
09:00+26юв814320 0.0 1012751
12:00+30юв914211 0.0 10131234
15:00+29вюв914248 0.0 1012994
18:00+23вюв615440 0.0 1012380
21:00+18вюв5154958 0.0 1013273